Check out our new BloomSky Weather System.

Active alerts

Houston, TX
  Details for Houston, TX Heat Advisory  +1 additional alert
Galveston, TX
  Details for Galveston, TX Air Quality Alert


Thunder radar  blitzortung!


Rain radar more information rain snow radar


Visit our other weather sites:

Template documentation
and downloads

And another site



Weather Underground History page Text

Daily Summary for March 3, 2017 Units:  Metric    English   Both
« Previous Day
Next Day »
Daily Weekly Monthly Yearly Custom
  High: Low: Average:
Temperature: -17.8 °C 7.4 °C 14.9 °C
Dew Point: -17.8 °C -1.1 °C 2 °C
Humidity: Humidity % 23 % 44 %
Wind Speed: 0 km/h 0 km/h 4 km/h
Wind Gust: 0 km/h - -
Wind:- - SE
Pressure: 0 hPa 1030 hPa -
Precipitation: 0 mm    
Historical Graphs
 
 
Tabular Data for March 3, 2017
Time Temperature Dew Point Pressure Wind Wind Speed Wind Gust Humidity Rainfall Rate (Hourly)
-17.8 °C -17.8 °C 0 hPa Calm     Humidity % 0 mm
00:02 9.3 °C 2.2 °C 1031 hPa Calm   1.6 km/h 61 % 0 mm
00:07 9.4 °C 2.3 °C 1031 hPa Calm   1.6 km/h 61 % 0 mm
00:12 9.4 °C 1.8 °C 1031 hPa Calm   1.6 km/h 59 % 0 mm
00:17 9.5 °C 1.6 °C 1031 hPa North 1.6 km/h 1.6 km/h 58 % 0 mm
00:22 9.9 °C 1.5 °C 1031 hPa Calm   1.6 km/h 56 % 0 mm
00:27 10.2 °C 1.3 °C 1031 hPa Calm   1.6 km/h 54 % 0 mm
00:32 10.5 °C 1.1 °C 1031 hPa Calm   3.2 km/h 52 % 0 mm
00:37 10.8 °C 0.8 °C 1031 hPa NNE 1.6 km/h 3.2 km/h 50 % 0 mm
00:42 11 °C 1 °C 1031 hPa Calm   3.2 km/h 50 % 0 mm
00:47 11.1 °C 0.8 °C 1031 hPa NNW 1.6 km/h 4.8 km/h 49 % 0 mm
00:52 11.2 °C 0.9 °C 1031 hPa NNW 1.6 km/h 6.4 km/h 49 % 0 mm
00:57 11.3 °C 0.7 °C 1031 hPa North 1.6 km/h 6.4 km/h 48 % 0 mm
01:02 11.4 °C 0.8 °C 1031 hPa NW 1.6 km/h 6.4 km/h 48 % 0 mm
01:07 11.5 °C 0.6 °C 1031 hPa NNW 3.2 km/h 4.8 km/h 47 % 0 mm
01:12 11.6 °C 0.7 °C 1031 hPa NNW 1.6 km/h 6.4 km/h 47 % 0 mm
01:17 11.6 °C 0.7 °C 1031.4 hPa NNE 1.6 km/h 6.4 km/h 47 % 0 mm
01:22 11.6 °C 0.7 °C 1031.4 hPa North 3.2 km/h 9.7 km/h 47 % 0 mm
01:27 11.6 °C 0.7 °C 1031.4 hPa NNE 3.2 km/h 9.7 km/h 47 % 0 mm
01:32 11.6 °C 0.7 °C 1031.4 hPa NE 3.2 km/h 9.7 km/h 47 % 0 mm
01:37 11.4 °C 0.8 °C 1031.4 hPa North 1.6 km/h 9.7 km/h 48 % 0 mm
01:42 11.3 °C 0.7 °C 1031 hPa North 3.2 km/h 9.7 km/h 48 % 0 mm
01:48 11.2 °C 0.9 °C 1031 hPa NNW 1.6 km/h 9.7 km/h 49 % 0 mm
01:53 11.1 °C 0.8 °C 1031 hPa NNW 1.6 km/h 8 km/h 49 % 0 mm
01:58 11 °C 0.7 °C 1031 hPa North 1.6 km/h 8 km/h 49 % 0 mm
02:03 10.9 °C 0.6 °C 1031 hPa NE 3.2 km/h 8 km/h 49 % 0 mm
02:08 10.9 °C 0.9 °C 1031 hPa NE 3.2 km/h 8 km/h 50 % 0 mm
02:13 10.9 °C 0.6 °C 1031 hPa NNW 1.6 km/h 11.3 km/h 49 % 0 mm
02:18 11 °C 0.7 °C 1031 hPa NW 1.6 km/h 14.5 km/h 49 % 0 mm
02:23 11 °C 0.7 °C 1031 hPa NNW 4.8 km/h 14.5 km/h 49 % 0 mm
02:28 11.1 °C 0.8 °C 1031 hPa NNW 3.2 km/h 14.5 km/h 49 % 0 mm
02:33 11 °C 0.7 °C 1031 hPa Calm   9.7 km/h 49 % 0 mm
02:38 10.9 °C 0.9 °C 1031 hPa Calm   9.7 km/h 50 % 0 mm
02:43 10.7 °C 0.7 °C 1030.7 hPa NNE 3.2 km/h 8 km/h 50 % 0 mm
02:48 10.7 °C 0.7 °C 1031 hPa Calm   8 km/h 50 % 0 mm
02:53 10.6 °C 0.9 °C 1030.7 hPa NE 1.6 km/h 8 km/h 51 % 0 mm
02:58 10.4 °C 0.7 °C 1030.7 hPa ENE 3.2 km/h 8 km/h 51 % 0 mm
03:03 10.4 °C 0.7 °C 1030.7 hPa NNE 1.6 km/h 4.8 km/h 51 % 0 mm
03:08 10.3 °C 0.9 °C 1030.7 hPa NNW 3.2 km/h 6.4 km/h 52 % 0 mm
03:13 10.3 °C 0.9 °C 1030.7 hPa NE 1.6 km/h 6.4 km/h 52 % 0 mm
03:18 10.2 °C 0.8 °C 1030.7 hPa ENE 1.6 km/h 6.4 km/h 52 % 0 mm
03:23 10.1 °C 0.9 °C 1030.7 hPa North 1.6 km/h 6.4 km/h 53 % 0 mm
03:28 9.9 °C 0.8 °C 1030.7 hPa North 3.2 km/h 6.4 km/h 53 % 0 mm
03:33 9.9 °C 1 °C 1030.7 hPa North 1.6 km/h 6.4 km/h 54 % 0 mm
03:38 9.8 °C 0.9 °C 1030.7 hPa North 1.6 km/h 6.4 km/h 54 % 0 mm
03:43 9.7 °C 0.8 °C 1030.7 hPa NNE 1.6 km/h 6.4 km/h 54 % 0 mm
03:48 9.6 °C 1 °C 1031 hPa NNW 1.6 km/h 4.8 km/h 55 % 0 mm
03:49 9.6 °C 1 °C 1031 hPa Calm   4.8 km/h 55 % 0 mm
03:54 9.4 °C 0.8 °C 1031 hPa ENE 1.6 km/h 4.8 km/h 55 % 0 mm
03:59 9.5 °C 0.9 °C 1030.7 hPa Calm   4.8 km/h 55 % 0 mm
04:04 9.4 °C 0.8 °C 1031 hPa Calm   8 km/h 55 % 0 mm
04:09 9.3 °C 1 °C 1031 hPa ENE 1.6 km/h 8 km/h 56 % 0 mm
04:14 9.2 °C 0.9 °C 1031 hPa Calm   8 km/h 56 % 0 mm
04:19 9.2 °C 1.1 °C 1031 hPa Calm   4.8 km/h 57 % 0 mm
04:24 9.1 °C 1 °C 1031 hPa Calm   8 km/h 57 % 0 mm
04:29 9 °C 0.9 °C 1031 hPa NNE 1.6 km/h 8 km/h 57 % 0 mm
04:34 8.9 °C 1.1 °C 1031 hPa North 1.6 km/h 8 km/h 58 % 0 mm
04:39 8.8 °C 1 °C 1031 hPa Calm   4.8 km/h 58 % 0 mm
04:44 8.8 °C 1.2 °C 1031.4 hPa North 1.6 km/h 6.4 km/h 59 % 0 mm
04:49 8.7 °C 1.1 °C 1031.4 hPa North 3.2 km/h 8 km/h 59 % 0 mm
04:54 8.7 °C 1.1 °C 1031.4 hPa Calm   8 km/h 59 % 0 mm
04:59 8.6 °C 1 °C 1031.4 hPa Calm   8 km/h 59 % 0 mm
05:04 8.6 °C 1.3 °C 1031.4 hPa NE 1.6 km/h 8 km/h 60 % 0 mm
05:09 8.4 °C 1.1 °C 1031.7 hPa Calm   8 km/h 60 % 0 mm
05:14 8.3 °C 1.4 °C 1031.7 hPa NE 1.6 km/h 6.4 km/h 62 % 0 mm
05:19 8.2 °C 1.1 °C 1031.7 hPa Calm   3.2 km/h 61 % 0 mm
05:24 8.1 °C 1.3 °C 1032.1 hPa Calm   3.2 km/h 62 % 0 mm
05:29 7.9 °C 1.3 °C 1032.1 hPa Calm   1.6 km/h 63 % 0 mm
05:34 7.9 °C 1.3 °C 1032.1 hPa Calm   1.6 km/h 63 % 0 mm
05:39 7.8 °C 1.2 °C 1032.1 hPa Calm   3.2 km/h 63 % 0 mm
05:44 7.6 °C 1.2 °C 1032.1 hPa North 1.6 km/h 3.2 km/h 64 % 0 mm
05:49 7.6 °C 1.2 °C 1032.1 hPa Calm   3.2 km/h 64 % 0 mm
05:54 7.4 °C 1.3 °C 1032.1 hPa Calm   3.2 km/h 65 % 0 mm
05:59 7.5 °C 1.3 °C 1032.1 hPa Calm   3.2 km/h 65 % 0 mm
06:04 7.5 °C 1.3 °C 1032.1 hPa NW 3.2 km/h 3.2 km/h 65 % 0 mm
06:09 7.5 °C 1.3 °C 1032.1 hPa Calm   4.8 km/h 65 % 0 mm
06:14 7.4 °C 1.3 °C 1032.4 hPa Calm   4.8 km/h 65 % 0 mm
06:19 7.4 °C 1.5 °C 1032.4 hPa Calm   4.8 km/h 66 % 0 mm
06:24 7.4 °C 1.5 °C 1032.4 hPa Calm   1.6 km/h 66 % 0 mm
06:29 7.4 °C 1.5 °C 1032.4 hPa ENE 4.8 km/h 4.8 km/h 66 % 0 mm
06:34 7.4 °C 1.5 °C 1032.4 hPa Calm   4.8 km/h 66 % 0 mm
06:39 7.5 °C 1.6 °C 1032.4 hPa NNW 1.6 km/h 4.8 km/h 66 % 0 mm
06:44 7.5 °C 1.3 °C 1032.4 hPa Calm   4.8 km/h 65 % 0 mm
06:49 7.5 °C 1.3 °C 1032.7 hPa Calm   4.8 km/h 65 % 0 mm
06:54 7.5 °C 1.6 °C 1032.4 hPa NNE 3.2 km/h 4.8 km/h 66 % 0 mm
06:59 7.6 °C 1.4 °C 1032.7 hPa Calm   8 km/h 65 % 0 mm
07:04 7.7 °C 1.5 °C 1032.4 hPa North 1.6 km/h 8 km/h 65 % 0 mm
07:09 7.8 °C 1.6 °C 1032.7 hPa Calm   8 km/h 65 % 0 mm
07:14 7.8 °C 1.6 °C 1032.7 hPa East 1.6 km/h 8 km/h 65 % 0 mm
07:19 7.9 °C 1.5 °C 1032.7 hPa NNE 3.2 km/h 6.4 km/h 64 % 0 mm
07:24 8 °C 1.8 °C 1032.7 hPa East 1.6 km/h 8 km/h 65 % 0 mm
07:29 8.2 °C 2 °C 1032.7 hPa NNE 1.6 km/h 8 km/h 65 % 0 mm
07:34 8.4 °C 2 °C 1033.1 hPa Calm   8 km/h 64 % 0 mm
07:39 8.8 °C 2.4 °C 1033.1 hPa Calm   3.2 km/h 64 % 0 mm
07:44 9.2 °C 2.3 °C 1032.7 hPa Calm   3.2 km/h 62 % 0 mm
07:49 9.6 °C 2.2 °C 1033.1 hPa ENE 1.6 km/h 4.8 km/h 60 % 0 mm
07:55 10.1 °C 2.4 °C 1033.1 hPa Calm   11.3 km/h 59 % 0 mm
08:00 10.5 °C 2.6 °C 1033.1 hPa East 4.8 km/h 11.3 km/h 58 % 0 mm
08:05 10.7 °C 2 °C 1033.1 hPa ENE 4.8 km/h 11.3 km/h 55 % 0 mm
08:10 10.8 °C 2.1 °C 1033.4 hPa East 3.2 km/h 12.9 km/h 55 % 0 mm
08:15 11 °C 2.3 °C 1033.4 hPa NNE 8 km/h 12.9 km/h 55 % 0 mm
08:20 11.3 °C 2.1 °C 1033.4 hPa East 6.4 km/h 11.3 km/h 53 % 0 mm
08:25 11.6 °C 2.1 °C 1033.4 hPa NW 3.2 km/h 11.3 km/h 52 % 0 mm
08:30 11.9 °C 2.1 °C 1033.4 hPa NNE 3.2 km/h 11.3 km/h 51 % 0 mm
08:35 12.4 °C 2.3 °C 1033.7 hPa South 1.6 km/h 9.7 km/h 50 % 0 mm
08:40 12.9 °C 2.7 °C 1033.7 hPa ENE 3.2 km/h 9.7 km/h 50 % 0 mm
08:45 13.2 °C 2.4 °C 1033.7 hPa Calm   9.7 km/h 48 % 0 mm
08:55 14.1 °C 1.7 °C 1033.7 hPa ESE 1.6 km/h 11.3 km/h 43 % 0 mm
09:00 14.6 °C 1.8 °C 1033.7 hPa ESE 1.6 km/h 11.3 km/h 42 % 0 mm
09:05 14.6 °C 1.5 °C 1033.7 hPa NE 11.3 km/h 16.1 km/h 41 % 0 mm
09:10 14.7 °C 1.2 °C 1033.7 hPa East 6.4 km/h 16.1 km/h 40 % 0 mm
09:15 14.9 °C 1.1 °C 1033.7 hPa East 8 km/h 20.9 km/h 39 % 0 mm
09:20 14.9 °C 1.4 °C 1033.7 hPa East 9.7 km/h 20.9 km/h 40 % 0 mm
09:25 15.3 °C 1.4 °C 1034.1 hPa ENE 6.4 km/h 20.9 km/h 39 % 0 mm
09:30 15.4 °C 1.5 °C 1034.1 hPa North 3.2 km/h 19.3 km/h 39 % 0 mm
09:35 15.8 °C 1.5 °C 1033.7 hPa NE 9.7 km/h 12.9 km/h 38 % 0 mm
09:40 15.9 °C 0.8 °C 1034.1 hPa ENE 14.5 km/h 16.1 km/h 36 % 0 mm
09:45 16.1 °C 1.4 °C 1034.1 hPa East 9.7 km/h 22.5 km/h 37 % 0 mm
09:50 16.3 °C 0.8 °C 1034.1 hPa East 3.2 km/h 22.5 km/h 35 % 0 mm
09:55 16.5 °C 1.4 °C 1034.1 hPa East 3.2 km/h 22.5 km/h 36 % 0 mm
10:00 16.7 °C 0.8 °C 1034.1 hPa NNE 4.8 km/h 19.3 km/h 34 % 0 mm
10:05 16.8 °C 0.8 °C 1034.1 hPa ESE 4.8 km/h 17.7 km/h 34 % 0 mm
10:10 17.3 °C 0.4 °C 1034.1 hPa ESE 9.7 km/h 20.9 km/h 32 % 0 mm
10:15 17.4 °C -0.4 °C 1034.1 hPa ENE 6.4 km/h 24.1 km/h 30 % 0 mm
10:20 17.4 °C -0.4 °C 1034.1 hPa SE 3.2 km/h 27.4 km/h 30 % 0 mm
10:25 17.5 °C -0.3 °C 1034.1 hPa East 9.7 km/h 27.4 km/h 30 % 0 mm
10:30 17.8 °C 0.4 °C 1034.1 hPa NE 3.2 km/h 27.4 km/h 31 % 0 mm
10:35 18 °C -0.3 °C 1034.1 hPa North 6.4 km/h 24.1 km/h 29 % 0 mm
10:40 18 °C 0.2 °C 1034.1 hPa West 11.3 km/h 24.1 km/h 30 % 0 mm
10:45 18.1 °C -0.7 °C 1034.1 hPa ENE 11.3 km/h 22.5 km/h 28 % 0 mm
10:50 18.3 °C 0.4 °C 1033.7 hPa WNW 6.4 km/h 22.5 km/h 30 % 0 mm
10:55 18.7 °C -0.2 °C 1033.7 hPa NNW 6.4 km/h 20.9 km/h 28 % 0 mm
11:00 18.8 °C -0.1 °C 1033.7 hPa ENE 3.2 km/h 17.7 km/h 28 % 0 mm
11:05 18.7 °C -0.2 °C 1033.7 hPa North 9.7 km/h 20.9 km/h 28 % 0 mm
11:10 19.2 °C 0.7 °C 1033.7 hPa Calm   20.9 km/h 29 % 0 mm
11:16 19.2 °C -0.8 °C 1033.7 hPa NNE 8 km/h 20.9 km/h 26 % 0 mm
11:21 19 °C -0.4 °C 1033.7 hPa ENE 8 km/h 19.3 km/h 27 % 0 mm
11:26 19.2 °C -0.3 °C 1033.4 hPa East 4.8 km/h 19.3 km/h 27 % 0 mm
11:31 19.4 °C -0.1 °C 1033.4 hPa East 4.8 km/h 19.3 km/h 27 % 0 mm
11:36 19.4 °C -0.6 °C 1033.4 hPa ESE 3.2 km/h 19.3 km/h 26 % 0 mm
11:41 19.4 °C -1.1 °C 1033.4 hPa South 3.2 km/h 19.3 km/h 25 % 0 mm
11:46 19.8 °C 0.3 °C 1033.1 hPa NNE 4.8 km/h 20.9 km/h 27 % 0 mm
11:51 19.8 °C -0.8 °C 1033.4 hPa ESE 3.2 km/h 20.9 km/h 25 % 0 mm
11:56 20.1 °C 0 °C 1033.1 hPa East 3.2 km/h 20.9 km/h 26 % 0 mm
12:01 20.6 °C 0.4 °C 1033.1 hPa NE 9.7 km/h 19.3 km/h 26 % 0 mm
12:06 20.6 °C -0.1 °C 1033.1 hPa ESE 8 km/h 17.7 km/h 25 % 0 mm
12:11 20.3 °C -0.9 °C 1033.1 hPa SE 12.9 km/h 20.9 km/h 24 % 0 mm
12:16 20.2 °C 0.1 °C 1033.1 hPa ESE 16.1 km/h 20.9 km/h 26 % 0 mm
12:21 20.3 °C -0.4 °C 1033.1 hPa East 9.7 km/h 20.9 km/h 25 % 0 mm
12:26 20.3 °C -0.4 °C 1032.7 hPa SE 4.8 km/h 20.9 km/h 25 % 0 mm
12:31 20.4 °C 1.3 °C 1032.7 hPa SSW 4.8 km/h 19.3 km/h 28 % 0 mm
12:36 20.7 °C -0.6 °C 1032.4 hPa East 4.8 km/h 22.5 km/h 24 % 0 mm
12:46 21 °C -0.3 °C 1032.4 hPa SE 14.5 km/h 22.5 km/h 24 % 0 mm
12:51 20.6 °C -0.7 °C 1032.1 hPa East 4.8 km/h 24.1 km/h 24 % 0 mm
12:56 20.7 °C -0.6 °C 1032.1 hPa East 4.8 km/h 24.1 km/h 24 % 0 mm
13:01 20.8 °C 0.6 °C 1032.1 hPa NNE 3.2 km/h 24.1 km/h 26 % 0 mm
13:06 20.9 °C -1 °C 1032.1 hPa East 12.9 km/h 17.7 km/h 23 % 0 mm
13:11 20.8 °C 0.6 °C 1032.1 hPa ENE 1.6 km/h 19.3 km/h 26 % 0 mm
13:16 21.2 °C -0.8 °C 1031.7 hPa ESE 16.1 km/h 19.3 km/h 23 % 0 mm
13:21 21.1 °C -0.3 °C 1031.7 hPa SSE 9.7 km/h 19.3 km/h 24 % 0 mm
13:26 21.2 °C -0.8 °C 1031.7 hPa East 16.1 km/h 19.3 km/h 23 % 0 mm
13:31 20.9 °C -1 °C 1031.7 hPa SE 11.3 km/h 20.9 km/h 23 % 0 mm
13:36 21 °C 0.2 °C 1031.4 hPa ESE 12.9 km/h 20.9 km/h 25 % 0 mm
13:41 21.1 °C -0.8 °C 1031.4 hPa SE 3.2 km/h 20.9 km/h 23 % 0 mm
13:46 21.2 °C -0.2 °C 1031.4 hPa ENE 3.2 km/h 19.3 km/h 24 % 0 mm
13:51 21.6 °C 1.3 °C 1031.4 hPa South 1.6 km/h 19.3 km/h 26 % 0 mm
13:56 21.4 °C 0.6 °C 1031.4 hPa SE 12.9 km/h 14.5 km/h 25 % 0 mm
14:01 21.4 °C 0.6 °C 1031 hPa ESE 12.9 km/h 19.3 km/h 25 % 0 mm
14:06 21.7 °C 0.8 °C 1031 hPa NNW 3.2 km/h 19.3 km/h 25 % 0 mm
14:11 21.6 °C -0.4 °C 1031 hPa SSE 6.4 km/h 19.3 km/h 23 % 0 mm
14:16 21.2 °C -0.8 °C 1031 hPa ESE 12.9 km/h 19.3 km/h 23 % 0 mm
14:21 21.1 °C -0.3 °C 1030.7 hPa ESE 12.9 km/h 19.3 km/h 24 % 0 mm
14:26 21.1 °C -0.8 °C 1030.7 hPa SE 8 km/h 19.3 km/h 23 % 0 mm
14:27 21.1 °C -0.8 °C 1030.7 hPa ESE 8 km/h 19.3 km/h 23 % 0 mm
14:32 20.9 °C -0.4 °C 1030.7 hPa SE 1.6 km/h 17.7 km/h 24 % 0 mm
14:36 20.8 °C 0 °C 1030.7 hPa ESE 4.8 km/h 16.1 km/h 25 % 0 mm
14:42 20.9 °C -0.4 °C 1030.7 hPa ENE 1.6 km/h 17.7 km/h 24 % 0 mm
14:47 20.9 °C 0.1 °C 1030.7 hPa NE 8 km/h 17.7 km/h 25 % 0 mm
14:52 21.2 °C 0.9 °C 1030.7 hPa South 8 km/h 17.7 km/h 26 % 0 mm
14:57 21.3 °C 0.5 °C 1030.7 hPa East 17.7 km/h 17.7 km/h 25 % 0 mm
15:02 21.3 °C 0.5 °C 1030.4 hPa ESE 9.7 km/h 19.3 km/h 25 % 0 mm
15:07 21.3 °C 0.5 °C 1030.7 hPa ESE 3.2 km/h 19.3 km/h 25 % 0 mm
15:12 21 °C 0.8 °C 1030.4 hPa SE 8 km/h 19.3 km/h 26 % 0 mm
15:17 20.9 °C 0.7 °C 1030.4 hPa ENE 3.2 km/h 19.3 km/h 26 % 0 mm
15:22 21.1 °C 0.3 °C 1030.4 hPa NE 8 km/h 19.3 km/h 25 % 0 mm
15:27 21.4 °C 0.6 °C 1030.4 hPa ESE 14.5 km/h 14.5 km/h 25 % 0 mm
15:32 21.2 °C -0.2 °C 1030.4 hPa East 6.4 km/h 22.5 km/h 24 % 0 mm
15:37 21 °C -0.3 °C 1030.4 hPa East 4.8 km/h 22.5 km/h 24 % 0 mm
15:42 20.9 °C 0.1 °C 1030.4 hPa East 4.8 km/h 22.5 km/h 25 % 0 mm
15:47 20.8 °C 0 °C 1030.4 hPa ESE 8 km/h 16.1 km/h 25 % 0 mm
15:52 20.6 °C -0.1 °C 1030.4 hPa East 3.2 km/h 16.1 km/h 25 % 0 mm
15:57 20.6 °C 0.4 °C 1030 hPa ESE 3.2 km/h 16.1 km/h 26 % 0 mm
16:02 20.9 °C 1.2 °C 1030 hPa SE 8 km/h 16.1 km/h 27 % 0 mm
16:07 21.3 °C 0.5 °C 1030.4 hPa ENE 8 km/h 16.1 km/h 25 % 0 mm
16:12 21.2 °C 0.9 °C 1030.4 hPa ESE 8 km/h 12.9 km/h 26 % 0 mm
16:17 20.7 °C 0.5 °C 1030 hPa ESE 11.3 km/h 20.9 km/h 26 % 0 mm
16:22 20.3 °C 0.2 °C 1030 hPa ESE 8 km/h 20.9 km/h 26 % 0 mm
16:27 20.3 °C 0.7 °C 1030 hPa SE 14.5 km/h 20.9 km/h 27 % 0 mm
16:32 20.5 °C 0.3 °C 1030 hPa SE 9.7 km/h 17.7 km/h 26 % 0 mm
16:37 20.6 °C 0.4 °C 1030 hPa SSE 8 km/h 17.7 km/h 26 % 0 mm
16:42 20.7 °C 1 °C 1030 hPa SE 3.2 km/h 17.7 km/h 27 % 0 mm
16:47 20.8 °C 0.6 °C 1030 hPa SE 6.4 km/h 14.5 km/h 26 % 0 mm
16:52 20.8 °C 0.6 °C 1030 hPa ESE 11.3 km/h 14.5 km/h 26 % 0 mm
16:57 20.9 °C 1.2 °C 1030.4 hPa East 6.4 km/h 14.5 km/h 27 % 0 mm
17:02 20.8 °C 0.6 °C 1030.4 hPa SE 6.4 km/h 14.5 km/h 26 % 0 mm
17:07 20.6 °C 0.9 °C 1030.4 hPa SSE 8 km/h 14.5 km/h 27 % 0 mm
17:12 20.3 °C 0.7 °C 1030.4 hPa ESE 12.9 km/h 14.5 km/h 27 % 0 mm
17:17 20.2 °C 0.6 °C 1030.4 hPa SSE 8 km/h 12.9 km/h 27 % 0 mm
17:22 19.9 °C 0.8 °C 1030.4 hPa East 3.2 km/h 17.7 km/h 28 % 0 mm
17:27 19.8 °C 1.7 °C 1030.4 hPa SE 9.7 km/h 17.7 km/h 30 % 0 mm
17:32 19.8 °C 2.6 °C 1030.4 hPa SSE 9.7 km/h 17.7 km/h 32 % 0 mm
17:37 19.5 °C 2.4 °C 1030.4 hPa South 11.3 km/h 16.1 km/h 32 % 0 mm
17:42 19.4 °C 2.7 °C 1030.4 hPa SE 6.4 km/h 16.1 km/h 33 % 0 mm
17:47 19.2 °C 2.5 °C 1030.4 hPa SE 8 km/h 16.1 km/h 33 % 0 mm
17:52 19.1 °C 2.4 °C 1030.7 hPa ESE 6.4 km/h 16.1 km/h 33 % 0 mm
17:57 18.9 °C 2.7 °C 1030.7 hPa SE 6.4 km/h 16.1 km/h 34 % 0 mm
18:02 18.9 °C 3.5 °C 1030.4 hPa ESE 11.3 km/h 12.9 km/h 36 % 0 mm
18:07 18.8 °C 3.8 °C 1030.7 hPa SE 8 km/h 16.1 km/h 37 % 0 mm
18:12 18.7 °C 4.1 °C 1030.7 hPa ESE 11.3 km/h 16.1 km/h 38 % 0 mm
18:17 18.6 °C 4 °C 1030.7 hPa SE 12.9 km/h 16.1 km/h 38 % 0 mm
18:22 18.6 °C 4.4 °C 1030.7 hPa South 3.2 km/h 16.1 km/h 39 % 0 mm
18:27 18.4 °C 4.6 °C 1031 hPa SSW 8 km/h 16.1 km/h 40 % 0 mm
18:32 18.3 °C 4.1 °C 1030.7 hPa East 6.4 km/h 16.1 km/h 39 % 0 mm
18:37 18.2 °C 4.4 °C 1030.7 hPa East 8 km/h 12.9 km/h 40 % 0 mm
18:42 18.1 °C 4.3 °C 1031 hPa South 6.4 km/h 17.7 km/h 40 % 0 mm
18:47 18 °C 4.2 °C 1031 hPa SE 3.2 km/h 17.7 km/h 40 % 0 mm
18:52 17.8 °C 4 °C 1031 hPa ESE 6.4 km/h 17.7 km/h 40 % 0 mm
18:53 17.8 °C 4.4 °C 1031 hPa SE 3.2 km/h 17.7 km/h 41 % 0 mm
18:58 17.7 °C 4.3 °C 1031 hPa ESE 3.2 km/h 9.7 km/h 41 % 0 mm
19:03 17.6 °C 4.2 °C 1031 hPa SE 6.4 km/h 11.3 km/h 41 % 0 mm
19:08 17.5 °C 4.4 °C 1031 hPa SE 4.8 km/h 11.3 km/h 42 % 0 mm
19:13 17.4 °C 4.4 °C 1031 hPa ESE 4.8 km/h 11.3 km/h 42 % 0 mm
19:18 17.4 °C 4.7 °C 1031 hPa East 4.8 km/h 11.3 km/h 43 % 0 mm
19:23 17.3 °C 4.6 °C 1031 hPa SSE 4.8 km/h 11.3 km/h 43 % 0 mm
19:28 17.2 °C 4.8 °C 1031 hPa SSE 6.4 km/h 11.3 km/h 44 % 0 mm
19:33 17.2 °C 4.8 °C 1031 hPa SSE 4.8 km/h 12.9 km/h 44 % 0 mm
19:38 17.1 °C 4.7 °C 1031 hPa SSE 3.2 km/h 12.9 km/h 44 % 0 mm
19:43 17 °C 5 °C 1031 hPa SSE 3.2 km/h 12.9 km/h 45 % 0 mm
19:48 16.9 °C 4.9 °C 1031 hPa SSE 1.6 km/h 9.7 km/h 45 % 0 mm
19:53 16.7 °C 5 °C 1031 hPa SE 3.2 km/h 9.7 km/h 46 % 0 mm
19:58 16.4 °C 5.1 °C 1031 hPa Calm   6.4 km/h 47 % 0 mm
20:03 16.4 °C 5.1 °C 1031 hPa SSE 3.2 km/h 6.4 km/h 47 % 0 mm
20:08 16.4 °C 5.1 °C 1031 hPa ESE 1.6 km/h 8 km/h 47 % 0 mm
20:13 16.3 °C 5.3 °C 1031 hPa East 4.8 km/h 8 km/h 48 % 0 mm
20:18 16.3 °C 5.3 °C 1031 hPa SE 6.4 km/h 9.7 km/h 48 % 0 mm
20:23 16.2 °C 5.5 °C 1031 hPa SE 3.2 km/h 9.7 km/h 49 % 0 mm
20:28 16.1 °C 5.4 °C 1031 hPa SSE 3.2 km/h 9.7 km/h 49 % 0 mm
20:33 16 °C 5.6 °C 1031 hPa ESE 1.6 km/h 8 km/h 50 % 0 mm
20:38 15.9 °C 5.5 °C 1031 hPa ESE 3.2 km/h 6.4 km/h 50 % 0 mm
20:43 15.8 °C 5.7 °C 1031 hPa SE 3.2 km/h 4.8 km/h 51 % 0 mm
20:48 15.7 °C 5.6 °C 1031 hPa ESE 1.6 km/h 6.4 km/h 51 % 0 mm
20:53 15.6 °C 5.8 °C 1031 hPa Calm   6.4 km/h 52 % 0 mm
20:58 15.5 °C 5.7 °C 1031 hPa Calm   6.4 km/h 52 % 0 mm
21:03 15.3 °C 5.8 °C 1031 hPa Calm   3.2 km/h 53 % 0 mm
21:08 15.3 °C 6 °C 1031 hPa Calm   3.2 km/h 54 % 0 mm
21:13 15.2 °C 6 °C 1031 hPa Calm   3.2 km/h 54 % 0 mm
21:18 15.1 °C 5.9 °C 1031 hPa East 1.6 km/h 4.8 km/h 54 % 0 mm
21:23 15 °C 6 °C 1031 hPa Calm   4.8 km/h 55 % 0 mm
21:28 14.9 °C 5.9 °C 1031 hPa Calm   4.8 km/h 55 % 0 mm
21:33 14.8 °C 6.1 °C 1031 hPa Calm   3.2 km/h 56 % 0 mm
21:38 14.8 °C 6.1 °C 1031 hPa Calm   1.6 km/h 56 % 0 mm
21:43 14.7 °C 6.3 °C 1031 hPa Calm   1.6 km/h 57 % 0 mm
21:48 14.6 °C 6.2 °C 1031 hPa Calm   1.6 km/h 57 % 0 mm
21:54 14.6 °C 6.2 °C 1031 hPa Calm   1.6 km/h 57 % 0 mm
21:59 14.6 °C 6.4 °C 1031 hPa Calm   1.6 km/h 58 % 0 mm
22:04 14.6 °C 6.4 °C 1031 hPa Calm   1.6 km/h 58 % 0 mm
22:09 14.6 °C 6.4 °C 1031 hPa Calm   1.6 km/h 58 % 0 mm
22:14 14.7 °C 6.5 °C 1031 hPa Calm   1.6 km/h 58 % 0 mm
22:19 14.8 °C 6.6 °C 1031 hPa Calm   1.6 km/h 58 % 0 mm
22:24 14.8 °C 6.6 °C 1031 hPa ESE 1.6 km/h 1.6 km/h 58 % 0 mm
22:29 14.8 °C 6.6 °C 1031 hPa ESE 1.6 km/h 1.6 km/h 58 % 0 mm
22:34 14.8 °C 6.6 °C 1031 hPa Calm   3.2 km/h 58 % 0 mm
22:39 14.8 °C 6.9 °C 1031 hPa Calm   3.2 km/h 59 % 0 mm
22:44 14.6 °C 6.7 °C 1031 hPa Calm   3.2 km/h 59 % 0 mm
22:49 14.5 °C 6.8 °C 1031 hPa Calm   1.6 km/h 60 % 0 mm
22:54 14.6 °C 7.2 °C 1031 hPa Calm   1.6 km/h 61 % 0 mm
22:59 14.4 °C 7 °C 1031 hPa Calm   1.6 km/h 61 % 0 mm
23:04 14.4 °C 7.2 °C 1030.7 hPa Calm   1.6 km/h 62 % 0 mm
23:09 14.3 °C 7.1 °C 1030.7 hPa Calm   1.6 km/h 62 % 0 mm
23:14 14.3 °C 7.1 °C 1030.7 hPa Calm   1.6 km/h 62 % 0 mm
23:19 14.3 °C 7.1 °C 1030.7 hPa Calm   1.6 km/h 62 % 0 mm
23:24 14.2 °C 7.3 °C 1030.7 hPa Calm   1.6 km/h 63 % 0 mm
23:29 14 °C 7.1 °C 1030.7 hPa Calm   1.6 km/h 63 % 0 mm
23:34 13.9 °C 7.2 °C 1030.4 hPa Calm   1.6 km/h 64 % 0 mm
23:39 14 °C 7.5 °C 1030.4 hPa Calm   1.6 km/h 65 % 0 mm
23:44 14 °C 7.5 °C 1030.4 hPa Calm   1.6 km/h 65 % 0 mm
23:49 14 °C 7.5 °C 1030.4 hPa Calm   1.6 km/h 65 % 0 mm
23:54 13.9 °C 7.4 °C 1030.4 hPa Calm   1.6 km/h 65 % 0 mm
23:59 13.9 °C 7.4 °C 1030.4 hPa Calm     65 % 0 mm
Spring, Texas: Villages of Bridgestone
Compliments of Weather Underground - 2.75 mb

Script developed by  Jim McMurry - jmcmurry@mwt.net Adapted for the template by  Wim van der Kuil - Leuven-Template.eu

You find our weather info also at:

UK Metoffice

WeatherCloud

Weather Underground

Mid-South Weather Network

AWEKAS

Citizen Weather Observer Program (CWOP)

HAMweather, WeatherForYou, PWS Weather

Equipment we use:

Weather-station
Davis Vantage Vue

Weather-program
Meteohub

Weather-server
Debian 7.9 x86 (Guest)

Provider
DreamHost

Davis Vantage Vue

Meteohub

Debian 7.9 x86 (Guest)

DreamHost